TimeCST,TemperatureF,Dew PointF,Humidity,Sea Level PressureIn,VisibilityMPH,Wind Direction,Wind SpeedMPH,Gust SpeedMPH,PrecipitationIn,Events,Conditions,WindDirDegrees,DateUTC
12:15 AM,29.7,29.1,98,30.34,3.0,NE,3.5,-,N/A,,Overcast,40,2013-12-08 06:15:00
12:35 AM,29.7,29.1,98,30.32,4.0,East,3.5,-,N/A,,Overcast,80,2013-12-08 06:35:00
12:55 AM,29.7,29.1,98,30.31,5.0,Calm,Calm,-,N/A,,Overcast,0,2013-12-08 06:55:00
1:15 AM,29.5,28.9,98,30.28,5.0,East,5.8,-,N/A,,Overcast,80,2013-12-08 07:15:00
1:35 AM,29.7,29.1,98,30.28,7.0,East,4.6,-,N/A,,Overcast,100,2013-12-08 07:35:00
1:55 AM,29.3,28.9,99,30.28,7.0,ENE,4.6,-,N/A,,Overcast,70,2013-12-08 07:55:00
2:15 AM,29.7,29.1,98,30.28,7.0,ENE,3.5,-,N/A,,Overcast,60,2013-12-08 08:15:00
2:35 AM,29.8,29.3,98,30.29,7.0,Calm,Calm,-,N/A,,Overcast,0,2013-12-08 08:35:00
2:55 AM,29.8,29.3,98,30.27,7.0,Calm,Calm,-,N/A,,Overcast,0,2013-12-08 08:55:00
3:15 AM,30.0,29.3,97,30.25,7.0,ESE,3.5,-,N/A,,Overcast,110,2013-12-08 09:15:00
3:35 AM,30.2,29.8,99,30.27,5.0,Calm,Calm,-,N/A,,Overcast,0,2013-12-08 09:35:00
3:55 AM,30.2,29.8,99,30.26,4.0,Calm,Calm,-,N/A,,Overcast,0,2013-12-08 09:55:00
4:15 AM,30.2,29.8,99,30.26,4.0,Calm,Calm,-,N/A,,Overcast,0,2013-12-08 10:15:00
4:35 AM,30.4,30.2,99,30.25,7.0,Calm,Calm,-,N/A,,Overcast,0,2013-12-08 10:35:00
4:55 AM,30.2,30.0,99,30.25,5.0,Calm,Calm,-,N/A,,Overcast,0,2013-12-08 10:55:00
5:15 AM,30.4,30.2,99,30.26,5.0,Calm,Calm,-,N/A,,Overcast,0,2013-12-08 11:15:00
5:35 AM,30.6,30.2,99,30.24,5.0,Calm,Calm,-,N/A,,Overcast,0,2013-12-08 11:35:00
5:55 AM,30.6,30.2,99,30.26,4.0,North,3.5,-,N/A,,Overcast,10,2013-12-08 11:55:00
6:15 AM,30.2,30.2,100,30.25,3.0,North,3.5,-,N/A,,Overcast,360,2013-12-08 12:15:00
6:35 AM,30.6,30.6,100,30.25,4.0,Calm,Calm,-,N/A,,Overcast,0,2013-12-08 12:35:00
6:55 AM,30.7,30.7,100,30.25,3.0,NNE,3.5,-,N/A,,Overcast,30,2013-12-08 12:55:00
7:15 AM,30.9,30.9,100,30.24,3.0,Calm,Calm,-,N/A,,Overcast,0,2013-12-08 13:15:00
7:35 AM,30.7,30.7,100,30.24,1.8,Calm,Calm,-,N/A,,Overcast,0,2013-12-08 13:35:00
7:55 AM,31.1,31.1,100,30.24,2.0,North,3.5,-,N/A,,Overcast,360,2013-12-08 13:55:00
8:15 AM,31.1,31.1,100,30.24,1.5,North,4.6,-,N/A,,Overcast,10,2013-12-08 14:15:00
8:35 AM,31.1,31.1,100,30.23,1.8,Calm,Calm,-,N/A,,Overcast,0,2013-12-08 14:35:00
8:55 AM,31.6,31.6,100,30.22,2.0,Calm,Calm,-,N/A,,Overcast,0,2013-12-08 14:55:00
9:15 AM,32.0,32.0,100,30.24,2.0,Calm,Calm,-,N/A,,Overcast,0,2013-12-08 15:15:00
9:35 AM,32.0,32.0,100,30.24,4.0,Calm,Calm,-,N/A,,Overcast,0,2013-12-08 15:35:00
9:55 AM,32.5,32.0,98,30.23,5.0,East,3.5,-,N/A,,Overcast,80,2013-12-08 15:55:00
10:15 AM,32.9,32.0,96,30.24,5.0,Calm,Calm,-,N/A,,Overcast,0,2013-12-08 16:15:00
10:35 AM,33.1,32.0,96,30.21,5.0,North,4.6,-,N/A,,Overcast,10,2013-12-08 16:35:00
10:55 AM,33.3,32.0,95,30.22,7.0,Calm,Calm,-,N/A,,Overcast,0,2013-12-08 16:55:00
11:15 AM,33.6,32.0,94,30.22,7.0,North,4.6,-,N/A,,Overcast,10,2013-12-08 17:15:00
11:35 AM,34.0,32.2,93,30.23,7.0,Calm,Calm,-,N/A,,Overcast,0,2013-12-08 17:35:00
11:55 AM,34.2,32.4,93,30.21,7.0,Calm,Calm,-,N/A,,Overcast,0,2013-12-08 17:55:00
12:15 PM,33.8,32.0,93,30.20,7.0,Calm,Calm,-,N/A,,Overcast,0,2013-12-08 18:15:00
12:35 PM,34.5,32.5,92,30.17,7.0,Calm,Calm,-,N/A,,Overcast,0,2013-12-08 18:35:00
12:55 PM,34.3,32.4,92,30.17,7.0,Calm,Calm,-,N/A,,Overcast,0,2013-12-08 18:55:00
1:15 PM,34.5,32.4,92,30.16,7.0,Calm,Calm,-,N/A,,Overcast,0,2013-12-08 19:15:00
1:35 PM,34.7,32.9,93,30.15,7.0,SSE,3.5,-,N/A,,Overcast,150,2013-12-08 19:35:00
1:55 PM,34.7,32.9,93,30.14,7.0,Calm,Calm,-,N/A,,Overcast,0,2013-12-08 19:55:00
2:15 PM,35.1,33.3,93,30.14,7.0,Calm,Calm,-,N/A,,Overcast,0,2013-12-08 20:15:00
2:35 PM,35.2,33.1,92,30.14,7.0,Calm,Calm,-,N/A,,Overcast,0,2013-12-08 20:35:00
2:55 PM,35.6,33.1,91,30.14,7.0,Calm,Calm,-,N/A,,Overcast,0,2013-12-08 20:55:00
3:15 PM,35.8,33.8,92,30.13,5.0,Calm,Calm,-,N/A,,Overcast,0,2013-12-08 21:15:00
3:35 PM,35.8,33.8,92,30.13,5.0,Calm,Calm,-,N/A,,Overcast,0,2013-12-08 21:35:00
3:55 PM,36.0,33.8,92,30.13,5.0,Calm,Calm,-,N/A,,Overcast,0,2013-12-08 21:55:00
4:15 PM,36.1,34.5,94,30.13,3.0,Calm,Calm,-,N/A,,Drizzle,0,2013-12-08 22:15:00
4:35 PM,35.8,34.5,95,30.13,3.0,Calm,Calm,-,N/A,,Light Drizzle,0,2013-12-08 22:35:00
4:55 PM,35.8,34.7,96,30.13,3.0,Calm,Calm,-,N/A,,Light Drizzle,0,2013-12-08 22:55:00
5:15 PM,36.0,35.2,97,30.14,4.0,Calm,Calm,-,N/A,Rain,Rain,0,2013-12-08 23:15:00
5:35 PM,35.6,34.9,97,30.13,4.0,Calm,Calm,-,N/A,,Overcast,0,2013-12-08 23:35:00
5:55 PM,35.8,35.1,97,30.14,5.0,Calm,Calm,-,N/A,,Overcast,0,2013-12-08 23:55:00
6:15 PM,35.8,35.2,98,30.14,4.0,Calm,Calm,-,N/A,,Overcast,0,2013-12-09 00:15:00
6:35 PM,35.8,35.2,98,30.15,4.0,Calm,Calm,-,N/A,,Overcast,0,2013-12-09 00:35:00
6:55 PM,36.0,35.6,99,30.15,3.0,Calm,Calm,-,N/A,,Overcast,0,2013-12-09 00:55:00
7:15 PM,36.0,35.8,99,30.16,4.0,Calm,Calm,-,N/A,,Overcast,0,2013-12-09 01:15:00
7:35 PM,36.1,35.8,99,30.16,4.0,Calm,Calm,-,N/A,,Overcast,0,2013-12-09 01:35:00
7:55 PM,36.1,35.6,98,30.17,5.0,Calm,Calm,-,N/A,,Overcast,0,2013-12-09 01:55:00
8:15 PM,36.1,35.6,98,30.17,4.0,Calm,Calm,-,N/A,,Overcast,0,2013-12-09 02:15:00
8:35 PM,36.5,36.0,98,30.17,5.0,Calm,Calm,-,N/A,,Overcast,0,2013-12-09 02:35:00
8:55 PM,36.5,36.0,98,30.17,5.0,Calm,Calm,-,N/A,,Overcast,0,2013-12-09 02:55:00
9:15 PM,36.9,36.3,98,30.18,5.0,Calm,Calm,-,N/A,,Overcast,0,2013-12-09 03:15:00
9:35 PM,36.7,36.1,98,30.18,5.0,Calm,Calm,-,N/A,,Overcast,0,2013-12-09 03:35:00
9:55 PM,36.7,36.1,98,30.19,5.0,Calm,Calm,-,N/A,,Overcast,0,2013-12-09 03:55:00
10:15 PM,36.7,36.1,98,30.19,4.0,Calm,Calm,-,N/A,,Overcast,0,2013-12-09 04:15:00
10:35 PM,36.7,36.5,99,30.20,2.5,Calm,Calm,-,N/A,,Overcast,0,2013-12-09 04:35:00
10:55 PM,36.7,36.7,100,30.19,2.5,Calm,Calm,-,N/A,,Overcast,0,2013-12-09 04:55:00
11:15 PM,36.7,36.7,100,-9999,2.5,Calm,Calm,-,N/A,,Overcast,0,2013-12-09 05:15:00
11:35 PM,36.7,36.7,100,30.19,2.5,Calm,Calm,-,N/A,,Overcast,0,2013-12-09 05:35:00
11:55 PM,36.5,36.5,100,30.19,3.0,Calm,Calm,-,N/A,,Overcast,0,2013-12-09 05:55:00